GW6199 Weather Reports


time (UTC)temp
F
wind
direction
speed
knots
gust
knots
rain 1hr
in
rain 24hr
in
rain mn
in
humidity
%
barometer
mb
20260509024341 57 42 1.7 2.6 0.00 0.00 0.00 82 1011.4
20260509023838 57 108 0.9 2.6 0.00 0.00 0.00 81 1011.3
20260509023336 59 6 1.7 2.6 0.00 0.00 0.00 79 1011.6
20260509022832 59 356 0.9 3.5 0.00 0.00 0.00 73 1011.3
20260509022330 60 67 0.9 0.9 0.00 0.00 0.00 71 1011.3
20260509021826 60 99 0.0 0.0 0.00 0.00 0.00 68 1011.0
20260509021323 60 107 0.0 0.0 0.00 0.00 0.00 70 1010.9
20260509020821 61 109 0.0 0.0 0.00 0.00 0.00 70 1011.1
20260509020319 60 110 0.0 0.9 0.00 0.00 0.00 69 1010.7
20260509015816 60 112 0.0 0.0 0.00 0.00 0.00 72 1010.8
20260509015314 60 118 0.0 0.9 0.00 0.00 0.00 73 1010.7
20260509014810 60 110 0.0 0.0 0.00 0.00 0.00 74 1010.9
20260509014308 60 101 0.0 0.0 0.00 0.00 0.00 72 1010.7
20260509013804 60 101 0.0 0.0 0.00 0.00 0.00 69 1010.7
20260509013300 60 102 0.0 0.0 0.00 0.00 0.00 69 1010.6
20260509012757 60 103 0.0 0.9 0.00 0.00 0.00 67 1010.7
20260509012254 61 90 0.0 0.0 0.00 0.00 0.00 67 1010.8
20260509011751 62 106 0.0 0.0 0.00 0.00 0.00 67 1010.8
20260509011248 62 124 0.0 0.9 0.00 0.00 0.00 62 1010.7
20260509010746 62 122 0.0 0.0 0.00 0.00 0.00 66 1010.9
20260509010242 63 106 0.0 0.0 0.00 0.00 0.00 62 1011.0
20260509005740 64 105 0.0 0.9 0.00 0.00 0.00 61 1010.9
20260509005238 64 107 0.0 1.7 0.00 0.00 0.00 59 1010.7
20260509004737 64 104 0.0 0.0 0.00 0.00 0.00 56 1010.6
20260509004235 64 109 0.0 0.9 0.00 0.00 0.00 53 1010.7
20260509003733 65 121 0.0 0.9 0.00 0.00 0.00 52 1010.5
20260509003230 65 110 0.0 0.0 0.00 0.00 0.00 52 1010.6
20260509002727 65 118 0.0 1.7 0.00 0.00 0.00 52 1010.4
20260509002225 65 142 0.0 1.7 0.00 0.00 0.00 51 1010.4
20260509001722 65 130 0.0 2.6 0.00 0.00 0.00 51 1010.3
20260509001218 65 197 0.9 1.7 0.00 0.00 0.00 51 1010.4
20260509000716 66 107 0.0 0.0 0.00 0.00 0.00 51 1010.6
20260509000213 66 141 0.9 0.9 0.00 0.00 0.00 50 1010.5
20260508235710 66 98 0.0 0.9 0.00 0.00 0.00 50 1010.6
20260508235206 66 261 0.9 2.6 0.00 0.00 0.00 49 1010.5
20260508234704 66 119 0.0 0.9 0.00 0.00 0.00 50 1010.4
20260508234200 66 132 0.0 0.9 0.00 0.00 0.00 49 1010.5
20260508233700 66 180 1.7 2.6 0.00 0.00 0.00 48 1010.5
20260508233157 66 175 0.9 1.7 0.00 0.00 0.00 49 1010.4
20260508232654 66 124 0.9 3.5 0.00 0.00 0.00 48 1010.3
20260508232150 66 118 0.9 1.7 0.00 0.00 0.00 49 1010.4
20260508231649 66 133 0.0 1.7 0.00 0.00 0.00 48 1010.7
20260508231145 66 193 1.7 2.6 0.00 0.00 0.00 47 1010.6
20260508230642 66 166 0.9 6.1 0.00 0.00 0.00 48 1010.4
20260508230138 67 125 0.9 0.9 0.00 0.00 0.00 48 1010.5
20260508225636 67 129 1.7 1.7 0.00 0.00 0.00 48 1010.3
20260508225132 67 166 1.7 2.6 0.00 0.00 0.00 47 1010.4
20260508224630 67 109 1.7 6.1 0.00 0.00 0.00 46 1010.3
20260508224128 67 115 0.9 1.7 0.00 0.00 0.00 48 1010.3
20260508223625 67 141 0.9 2.6 0.00 0.00 0.00 47 1010.3
20260508223122 68 226 1.7 3.5 0.00 0.00 0.00 47 1010.2
20260508222620 68 114 0.9 3.5 0.00 0.00 0.00 46 1010.3
20260508222116 68 140 1.7 6.1 0.00 0.00 0.00 46 1010.4
20260508221613 68 184 2.6 5.2 0.00 0.00 0.00 45 1010.4
20260508221108 68 197 1.7 2.6 0.00 0.00 0.00 46 1010.3
20260508220605 68 182 2.6 3.5 0.00 0.00 0.00 46 1010.2
20260508215558 68 202 2.6 6.1 0.00 0.00 0.00 46 1010.1
20260508215055 68 180 2.6 5.2 0.00 0.00 0.00 45 1010.2
20260508214553 68 178 3.5 7.0 0.00 0.00 0.00 45 1010.1
20260508214049 68 172 1.7 5.2 0.00 0.00 0.00 45 1010.2
20260508213546 69 129 2.6 7.0 0.00 0.00 0.00 44 1010.4
20260508213042 69 189 0.9 5.2 0.00 0.00 0.00 44 1010.2
20260508212539 69 215 0.9 6.1 0.00 0.00 0.00 45 1010.2
20260508212035 69 238 2.6 3.5 0.00 0.00 0.00 43 1010.4
20260508211531 69 213 1.7 3.5 0.00 0.00 0.00 43 1010.2
20260508211027 69 200 3.5 6.1 0.00 0.00 0.00 41 1010.4
20260508210524 71 92 3.5 3.5 0.00 0.00 0.00 40 1010.5
20260508210022 72 151 2.6 5.2 0.00 0.00 0.00 42 1010.6
20260508205518 71 133 3.5 6.1 0.00 0.00 0.00 42 1010.6
20260508205014 69 151 5.2 7.8 0.00 0.00 0.00 42 1010.9
20260508204512 68 248 5.2 7.8 0.00 0.00 0.00 43 1010.8
20260508204007 68 228 1.7 5.2 0.00 0.00 0.00 45 1010.8
20260508203503 68 180 1.7 3.5 0.00 0.00 0.00 43 1011.1
20260508202959 68 221 3.5 7.8 0.00 0.00 0.00 43 1011.1
20260508202456 68 149 1.7 3.5 0.00 0.00 0.00 43 1011.2
20260508201953 69 187 4.3 6.1 0.00 0.00 0.00 42 1011.3
20260508201450 69 97 0.9 2.6 0.00 0.00 0.00 45 1011.3
20260508200947 69 65 3.5 6.1 0.00 0.00 0.00 43 1011.3
20260508200444 69 189 3.5 5.2 0.00 0.00 0.00 42 1011.4
20260508195938 68 129 0.9 2.6 0.00 0.00 0.00 44 1011.4
20260508195436 68 95 0.9 3.5 0.00 0.00 0.00 45 1011.7
20260508194932 68 92 0.9 1.7 0.00 0.00 0.00 45 1011.6
20260508194429 68 310 1.7 2.6 0.00 0.00 0.00 44 1011.4
20260508193926 69 57 3.5 6.1 0.00 0.00 0.00 43 1011.5
20260508193423 69 185 0.9 3.5 0.00 0.00 0.00 44 1011.7
20260508192919 69 102 1.7 6.1 0.00 0.00 0.00 41 1011.8
20260508192416 70 179 3.5 5.2 0.00 0.00 0.00 41 1011.8
20260508191913 69 216 0.9 1.7 0.00 0.00 0.00 43 1011.7
20260508191411 69 166 0.9 8.7 0.00 0.00 0.00 43 1011.9
20260508190907 70 199 3.5 5.2 0.00 0.00 0.00 41 1011.9
20260508190405 71 119 3.5 7.8 0.00 0.00 0.00 40 1012.0
20260508185901 72 318 2.6 7.8 0.00 0.00 0.00 40 1012.0
20260508185358 72 218 2.6 6.1 0.00 0.00 0.00 40 1012.1
20260508184855 72 170 0.9 2.6 0.00 0.00 0.00 40 1012.2
20260508184353 71 278 2.6 6.1 0.00 0.00 0.00 42 1012.2
20260508183849 71 231 2.6 6.1 0.00 0.00 0.00 42 1012.4
20260508183346 70 158 3.5 8.7 0.00 0.00 0.00 41 1012.5
20260508182842 69 207 3.5 5.2 0.00 0.00 0.00 41 1012.4
20260508182339 70 210 3.5 5.2 0.00 0.00 0.00 40 1012.6
20260508181834 70 196 0.9 3.5 0.00 0.00 0.00 44 1012.8
20260508181331 71 142 6.1 11.3 0.00 0.00 0.00 40 1012.8
20260508180828 71 153 1.7 8.7 0.00 0.00 0.00 42 1012.9
20260508180325 71 223 0.9 5.2 0.00 0.00 0.00 42 1012.9
20260508175821 70 205 1.7 11.3 0.00 0.00 0.00 43 1013.1
20260508175318 71 240 5.2 8.7 0.00 0.00 0.00 39 1013.2
20260508174816 71 163 1.7 7.0 0.00 0.00 0.00 40 1013.1
20260508174313 70 195 0.9 7.0 0.00 0.00 0.00 45 1013.1
20260508173809 70 160 2.6 7.8 0.00 0.00 0.00 40 1013.4
20260508173307 69 340 2.6 5.2 0.00 0.00 0.00 43 1013.5
20260508172802 68 80 2.6 6.1 0.00 0.00 0.00 45 1013.5
20260508172300 68 212 2.6 7.8 0.00 0.00 0.00 44 1013.7
20260508171755 69 138 2.6 7.8 0.00 0.00 0.00 41 1013.8
20260508171252 68 50 3.5 5.2 0.00 0.00 0.00 45 1013.9
20260508170749 69 203 3.5 5.2 0.00 0.00 0.00 45 1013.9
20260508170247 69 120 4.3 7.8 0.00 0.00 0.00 44 1013.9
20260508165744 69 153 0.9 2.6 0.00 0.00 0.00 48 1014.0
20260508165241 69 202 1.7 5.2 0.00 0.00 0.00 45 1014.3
20260508164737 68 199 1.7 3.5 0.00 0.00 0.00 48 1014.3
20260508164234 69 188 3.5 5.2 0.00 0.00 0.00 45 1014.3
20260508163732 69 183 3.5 6.1 0.00 0.00 0.00 44 1014.5
20260508163229 68 149 2.6 5.2 0.00 0.00 0.00 48 1014.7
20260508162725 68 244 1.7 6.1 0.00 0.00 0.00 47 1014.6
20260508162222 68 62 1.7 6.1 0.00 0.00 0.00 48 1014.9
20260508161719 68 178 1.7 5.2 0.00 0.00 0.00 48 1014.7
20260508161216 68 296 3.5 5.2 0.00 0.00 0.00 49 1014.8
20260508160714 68 231 4.3 7.0 0.00 0.00 0.00 47 1014.9
20260508160212 67 148 1.7 3.5 0.00 0.00 0.00 47 1014.9
20260508155708 67 221 3.5 7.0 0.00 0.00 0.00 47 1015.1
20260508155205 67 210 3.5 5.2 0.00 0.00 0.00 49 1015.0
20260508154702 66 190 1.7 5.2 0.00 0.00 0.00 48 1015.2
20260508154159 67 220 2.6 6.1 0.00 0.00 0.00 46 1015.0
20260508153656 67 129 1.7 5.2 0.00 0.00 0.00 48 1015.0
20260508153153 67 228 1.7 2.6 0.00 0.00 0.00 50 1015.1
20260508152649 66 125 1.7 7.0 0.00 0.00 0.00 48 1015.4
20260508152145 66 236 1.7 2.6 0.00 0.00 0.00 50 1015.5
20260508151642 66 110 0.9 2.6 0.00 0.00 0.00 47 1015.3
20260508151138 66 197 0.9 1.7 0.00 0.00 0.00 52 1015.5
20260508150636 64 226 2.6 3.5 0.00 0.00 0.00 49 1015.5
20260508150132 64 100 1.7 6.1 0.00 0.00 0.00 50 1015.5
20260508145628 64 222 1.7 8.7 0.00 0.00 0.00 50 1015.5
20260508145124 64 201 2.6 3.5 0.00 0.00 0.00 50 1015.6
20260508144623 63 246 0.9 3.5 0.00 0.00 0.00 51 1015.7
20260508144120 62 195 0.9 3.5 0.00 0.00 0.00 51 1015.7
20260508143617 62 176 3.5 7.0 0.00 0.00 0.00 50 1015.6
20260508143114 62 196 2.6 6.1 0.00 0.00 0.00 50 1015.6
20260508142610 62 66 1.7 2.6 0.00 0.00 0.00 52 1015.7
20260508142107 61 310 0.9 2.6 0.00 0.00 0.00 51 1015.7
20260508141604 61 78 1.7 5.2 0.00 0.00 0.00 51 1015.9
20260508141101 60 190 3.5 5.2 0.00 0.00 0.00 51 1016.0
20260508140558 60 201 1.7 3.5 0.00 0.00 0.00 52 1015.9
20260508140055 60 310 1.7 2.6 0.00 0.00 0.00 53 1015.9
20260508135550 60 119 1.7 6.1 0.00 0.00 0.00 54 1015.9
20260508135047 59 173 0.9 3.5 0.00 0.00 0.00 54 1016.0
20260508134543 59 144 0.9 1.7 0.00 0.00 0.00 55 1015.8
20260508134041 59 198 1.7 2.6 0.00 0.00 0.00 52 1016.0
20260508133537 58 113 0.9 5.2 0.00 0.00 0.00 53 1015.8
20260508133035 58 189 0.9 3.5 0.00 0.00 0.00 54 1015.9
20260508132533 57 185 2.6 2.6 0.00 0.00 0.00 53 1015.9
20260508132029 57 118 1.7 6.1 0.00 0.00 0.00 54 1015.9
20260508131524 57 88 1.7 6.1 0.00 0.00 0.00 55 1016.0
20260508131021 56 184 0.9 2.6 0.00 0.00 0.00 56 1016.0
20260508130519 55 138 1.7 2.6 0.00 0.00 0.00 56 1015.8
20260508130015 55 74 2.6 3.5 0.00 0.00 0.00 55 1015.8
20260508125510 55 211 0.9 7.0 0.00 0.00 0.00 57 1015.9
20260508125008 54 162 0.9 3.5 0.00 0.00 0.00 56 1015.9
20260508124506 54 198 1.7 2.6 0.00 0.00 0.00 58 1016.0
20260508124003 53 123 0.9 1.7 0.00 0.00 0.00 58 1015.8
20260508123502 53 96 1.7 5.2 0.00 0.00 0.00 58 1015.9
20260508122957 52 209 1.7 6.1 0.00 0.00 0.00 60 1015.8
20260508122455 51 191 3.5 3.5 0.00 0.00 0.00 61 1015.7
20260508121952 51 158 0.9 0.9 0.00 0.00 0.00 63 1015.7
20260508121450 51 155 0.9 5.2 0.00 0.00 0.00 62 1015.6
20260508120948 51 174 0.9 1.7 0.00 0.00 0.00 62 1015.7
20260508120445 51 185 1.7 2.6 0.00 0.00 0.00 62 1015.6
20260508115943 50 273 0.9 2.6 0.00 0.00 0.00 63 1015.8
20260508115440 50 211 1.7 1.7 0.00 0.00 0.00 63 1015.6
20260508114937 49 156 1.7 2.6 0.00 0.00 0.00 64 1015.7
20260508114434 49 203 1.7 2.6 0.00 0.00 0.00 64 1015.6
20260508113930 49 185 0.9 1.7 0.00 0.00 0.00 64 1015.5
20260508113428 49 180 0.9 3.5 0.00 0.00 0.00 65 1015.5
20260508112925 49 131 0.9 2.6 0.00 0.00 0.00 66 1015.2
20260508112422 49 157 0.9 1.7 0.00 0.00 0.00 65 1015.2
20260508111918 48 158 1.7 5.2 0.00 0.00 0.00 64 1015.4
20260508111416 48 94 0.9 1.7 0.00 0.00 0.00 65 1015.3
20260508110913 48 232 1.7 3.5 0.00 0.00 0.00 65 1015.2
20260508110410 49 189 1.7 1.7 0.00 0.00 0.00 65 1015.1
20260508105910 49 129 0.0 1.7 0.00 0.00 0.00 65 1015.1
20260508105406 49 204 1.7 2.6 0.00 0.00 0.00 66 1015.2
20260508104904 49 151 0.9 1.7 0.00 0.00 0.00 64 1015.1
20260508104401 49 182 0.9 1.7 0.00 0.00 0.00 65 1015.1
20260508103858 49 110 0.0 0.9 0.00 0.00 0.00 65 1015.3
20260508103355 49 119 0.9 2.6 0.00 0.00 0.00 63 1015.2
20260508102852 50 134 1.7 2.6 0.00 0.00 0.00 63 1015.2
20260508102350 50 200 1.7 5.2 0.00 0.00 0.00 62 1015.1
20260508101847 49 167 0.9 1.7 0.00 0.00 0.00 63 1015.0
20260508101344 50 158 1.7 2.6 0.00 0.00 0.00 63 1015.4
20260508100842 49 149 1.7 2.6 0.00 0.00 0.00 62 1015.1
20260508100341 49 204 0.9 0.9 0.00 0.00 0.00 63 1015.2
20260508095836 49 147 0.0 0.9 0.00 0.00 0.00 64 1015.3
20260508095334 49 181 0.9 1.7 0.00 0.00 0.00 63 1015.2
20260508094830 49 203 1.7 1.7 0.00 0.00 0.00 63 1015.2
20260508094327 49 125 0.0 0.9 0.00 0.00 0.00 64 1015.3
20260508093824 49 114 0.0 0.9 0.00 0.00 0.00 65 1015.2
20260508093322 48 117 0.0 1.7 0.00 0.00 0.00 65 1015.3
20260508092819 48 133 0.0 1.7 0.00 0.00 0.00 66 1015.3
20260508092317 48 111 0.0 0.9 0.00 0.00 0.00 67 1015.1
20260508091815 48 133 0.0 0.9 0.00 0.00 0.00 67 1015.2
20260508091311 48 113 0.0 1.7 0.00 0.00 0.00 67 1015.3
20260508090809 48 91 0.0 0.9 0.00 0.00 0.00 66 1015.1
20260508090307 48 119 0.0 0.9 0.00 0.00 0.00 67 1015.3
20260508085803 48 111 0.0 0.0 0.00 0.00 0.00 66 1015.3
20260508085300 48 128 0.9 0.9 0.00 0.00 0.00 65 1015.3
20260508084755 48 121 0.0 1.7 0.00 0.00 0.00 65 1015.2
20260508084253 48 130 0.0 0.9 0.00 0.00 0.00 66 1015.1
20260508083751 48 114 0.0 0.9 0.00 0.00 0.00 66 1015.0
20260508083248 48 119 0.0 0.9 0.00 0.00 0.00 65 1015.0
20260508082747 48 150 0.9 1.7 0.00 0.00 0.00 64 1015.0
20260508082246 48 176 0.9 1.7 0.00 0.00 0.00 64 1015.2
20260508081743 48 119 0.0 0.9 0.00 0.00 0.00 65 1015.1
20260508081239 47 151 0.9 0.9 0.00 0.00 0.00 65 1014.9
20260508080736 47 109 0.0 0.9 0.00 0.00 0.00 66 1015.1
20260508080235 47 120 0.0 0.9 0.00 0.00 0.00 66 1015.0
20260508075731 47 109 0.0 0.0 0.00 0.00 0.00 67 1014.9
20260508075228 47 119 0.0 0.9 0.00 0.00 0.00 66 1015.0
20260508074726 47 117 0.0 0.9 0.00 0.00 0.00 66 1015.1
20260508074223 47 112 0.0 0.9 0.00 0.00 0.00 65 1015.0
20260508073719 47 123 0.0 0.0 0.00 0.00 0.00 65 1014.9
20260508073218 47 113 0.0 0.9 0.00 0.00 0.00 66 1015.0
20260508072713 47 107 0.0 0.9 0.00 0.00 0.00 67 1015.0
20260508072210 47 119 0.0 0.9 0.00 0.00 0.00 67 1015.2
20260508071708 47 114 0.0 0.0 0.00 0.00 0.00 66 1015.3
20260508071206 48 122 0.0 0.9 0.00 0.00 0.00 66 1015.2
20260508070703 48 119 0.0 0.9 0.00 0.00 0.00 66 1015.1
20260508070202 48 126 0.0 0.9 0.00 0.00 0.00 64 1015.2
20260508065658 48 113 0.0 0.9 0.00 0.00 0.00 64 1015.2
20260508065156 48 133 0.9 1.7 0.00 0.00 0.00 63 1015.2
20260508064654 48 143 0.9 0.9 0.00 0.00 0.00 63 1015.2
20260508064152 48 190 1.7 1.7 0.00 0.00 0.00 64 1015.4
20260508063649 48 178 0.9 0.9 0.00 0.00 0.00 64 1015.5
20260508063147 48 118 0.0 0.9 0.00 0.00 0.00 65 1015.6
20260508062644 48 112 0.0 0.9 0.00 0.00 0.00 65 1015.7
20260508062140 48 116 0.0 0.9 0.00 0.00 0.00 64 1015.8
20260508061638 49 122 0.0 0.9 0.00 0.00 0.00 64 1015.7
20260508061135 49 127 0.0 2.6 0.00 0.00 0.00 63 1015.9
20260508060632 49 143 0.9 1.7 0.00 0.00 0.00 63 1015.8
20260508060129 49 118 0.0 0.0 0.00 0.00 0.00 63 1015.8
20260508055624 49 156 0.9 2.6 0.00 0.00 0.00 61 1016.0
20260508055122 50 121 0.0 0.9 0.00 0.00 0.00 61 1015.8
20260508054618 49 136 0.9 1.7 0.00 0.00 0.00 61 1015.7
20260508054116 49 116 0.0 1.7 0.00 0.00 0.00 62 1015.7
20260508053612 49 123 0.0 0.9 0.00 0.00 0.00 62 1015.9
20260508053110 49 186 0.9 1.7 0.00 0.00 0.00 61 1015.9
20260508052607 49 128 0.0 0.9 0.00 0.00 0.00 61 1015.9
20260508052104 49 140 0.9 2.6 0.00 0.00 0.00 60 1015.8
20260508051600 50 114 0.0 0.9 0.00 0.00 0.00 60 1015.8
20260508051056 50 116 0.0 0.9 0.00 0.00 0.00 60 1015.8
20260508050552 50 134 0.0 0.9 0.00 0.00 0.00 60 1015.6
20260508050050 50 200 2.6 2.6 0.00 0.00 0.00 58 1015.7
20260508045546 50 104 0.9 1.7 0.00 0.00 0.00 59 1015.6
20260508045044 50 108 0.0 0.9 0.00 0.00 0.00 59 1015.6
20260508044541 50 140 0.0 1.7 0.00 0.00 0.00 58 1015.6
20260508044036 50 201 0.9 1.7 0.00 0.00 0.00 58 1015.7
20260508043533 50 131 0.9 1.7 0.00 0.00 0.00 58 1015.6
20260508043031 50 116 0.0 1.7 0.00 0.00 0.00 59 1015.8
20260508042527 50 180 0.9 1.7 0.00 0.00 0.00 59 1015.7
20260508042025 50 151 0.9 3.5 0.00 0.00 0.00 59 1015.7
20260508041521 49 169 0.0 0.9 0.00 0.00 0.00 62 1015.8
20260508041018 48 121 0.9 0.9 0.00 0.00 0.00 63 1015.7
20260508040515 49 117 0.0 0.0 0.00 0.00 0.00 65 1015.6
20260508040012 48 137 0.9 0.9 0.00 0.00 0.00 65 1015.5
20260508035509 47 154 0.9 0.9 0.00 0.00 0.00 66 1015.6
20260508035006 47 112 0.0 0.0 0.00 0.00 0.00 68 1015.5
20260508034503 46 123 0.0 0.9 0.00 0.00 0.00 70 1015.7
20260508034000 46 112 0.0 0.0 0.00 0.00 0.00 72 1015.7
20260508033458 46 113 0.0 0.0 0.00 0.00 0.00 74 1015.8
20260508032955 46 113 0.0 0.0 0.00 0.00 0.00 75 1015.7
20260508032452 46 105 0.0 0.0 0.00 0.00 0.00 77 1015.8
20260508031949 45 105 0.0 0.9 0.00 0.00 0.00 76 1015.6
20260508031447 45 103 0.0 0.0 0.00 0.00 0.00 75 1015.7
20260508030942 45 103 0.0 0.0 0.00 0.00 0.00 78 1015.6
20260508030439 45 103 0.0 0.0 0.00 0.00 0.00 79 1015.6
20260508025937 45 103 0.0 0.0 0.00 0.00 0.00 79 1015.6
20260508025433 45 103 0.0 0.0 0.00 0.00 0.00 80 1015.7
20260508024930 45 103 0.0 0.0 0.00 0.00 0.00 81 1015.4